Temp
41 41 41 41 41 42 42 42 42 43 43 43 43 45 44 46 46 43 43 43 43 43 43 43 42 43 45 44 43 44 45 44 44 44 44 45 45 45 45 45 44 44
39 39 39 39 39 40 40 41 41 41 42 42 43 43 44 44 44 44 43 42 42 42 41 42 41 42 42 42 41 42 41 42 42 42 43 41 42 42 44 43 42 43
39 38 38 37 38 38 39 40 40 41 40 41 42 42 43 43 43 43 43 41 41 41 41 42 41 40 40 39 39 40 40 39 40 39 40 40 40 40 41 42 43 41
40 40 39 38 39 38 38 38 38 39 39 38 40 41 42 42 42 41 41 41 41 39 38 38 38 39 38 39 38 40 38 38 39 38 39 39 39 39 40 40 41 41
39 40 40 40 39 39 38 38 37 37 36 38 38 39 40 39 39 38 38 38 37 37 38 38 37 37 37 38 36 38 37 39 37 36 38 38 38 38 39 39 39 40
37 38 38 39 38 38 38 37 37 37 37 36 38 38 37 37 37 37 37 36 37 37 36 36 36 37 37 37 37 38 38 39 38 36 37 37 38 38 39 38 38 39
36 36 36 36 37 36 37 36 37 37 38 37 38 38 38 37 37 37 37 37 37 37 36 36 35 36 36 36 36 36 37 36 36 36 36 37 37 37 37 37 38 38
34 35 35 35 36 35 36 36 36 36 37 37 37 38 38 38 38 37 37 37 37 38 39 39 38 36 35 35 36 36 35 37 37 36 36 36 35 36 36 38 38 38
34 34 34 33 33 33 34 34 35 35 35 36 36 36 37 37 37 38 37 37 36 37 37 37 38 38 38 37 36 35 35 35 36 35 35 35 35 36 36 36 36 37
34 32 33 32 33 33 33 32 33 33 33 34 34 35 36 36 37 37 37 37 37 37 37 36 36 36 36 36 36 36 36 36 35 35 35 35 35 35 35 35 36 36
32 32 32 32 31 32 32 32 32 33 33 32 33 33 33 34 36 36 36 36 36 36 37 37 37 36 35 35 36 36 37 37 36 36 36 36 36 36 36 36 36 36
31 31 31 30 30 30 30 31 32 31 31 32 30 32 33 33 33 34 35 36 36 36 36 36 37 37 36 36 36 36 36 36 37 36 37 37 37 37 36 36 37 37
30 30 31 30 30 30 31 30 29 30 30 30 31 30 30 31 32 32 33 34 35 36 36 36 36 36 36 37 36 36 35 35 36 36 36 37 37 37 37 37 37 37
30 31 31 31 30 29 30 29 29 29 30 30 30 30 30 30 30 31 32 32 33 34 35 36 35 36 36 36 36 36 36 35 35 35 35 36 36 37 37 37 38 38
30 29 30 28 28 28 29 28 28 27 29 29 29 30 31 30 30 30 30 30 31 32 32 33 34 35 36 36 36 36 35 34 35 35 35 35 35 36 36 37 37 38
29 28 29 28 28 29 28 28 27 27 28 28 29 30 30 30 30 30 29 30 30 31 31 33 33 34 36 38 39 36 35 34 34 34 34 34 34 35 35 36 37 37
28 29 28 28 29 28 27 27 27 27 25 26 27 28 29 30 30 30 30 30 30 30 30 32 33 34 37 39 40 41 38 34 33 33 33 34 34 34 34 35 36 37
30 29 29 29 28 27 27 26 25 25 26 25 26 26 27 28 29 29 30 30 31 31 30 31 32 35 38 39 39 40 40 35 33 32 33 33 33 33 34 35 35 35
29 28 29 29 29 29 27 27 26 26 26 25 26 27 27 27 29 29 29 29 29 29 30 31 31 34 37 38 38 39 40 38 33 32 31 32 32 33 33 34 34 35
29 28 28 28 29 28 28 27 26 26 26 26 26 26 26 26 27 28 29 28 28 28 29 30 30 33 36 36 37 38 39 38 33 32 31 31 31 32 33 33 34 34
29 28 28 28 28 28 27 27 27 26 25 25 24 24 25 25 26 27 27 28 28 28 28 28 29 33 35 36 36 37 38 38 33 32 31 30 31 31 31 32 33 34
28 27 27 27 27 27 26 26 26 25 25 25 25 24 25 25 25 26 26 26 26 26 26 26 28 33 34 35 35 36 37 34 32 31 30 29 30 30 31 31 32 33
28 27 26 26 25 24 24 24 24 24 25 25 23 23 23 23 23 24 24 25 24 25 24 24 25 29 32 33 34 35 35 31 30 30 29 29 29 30 31 31 32 32
26 25 23 22 21 21 21 22 23 23 23 23 22 21 21 21 22 22 23 23 23 22 23 22 23 27 30 31 32 33 33 30 30 29 28 28 28 30 30 31 31 34
22 21 20 19 19 19 19 19 20 20 21 21 21 20 20 21 21 21 21 21 21 21 23 22 21 24 28 29 30 32 31 29 29 28 27 27 28 29 30 30 30 32
19 18 18 17 16 16 16 16 18 18 18 18 18 19 18 19 19 19 18 19 20 20 20 20 20 20 23 27 28 29 30 28 27 26 26 26 28 28 28 28 29 30
MSLP
1016.66 1016.42 1016.54 1016.66 1016.70 1016.62 1016.42 1016.18 1016.02 1015.94 1015.82 1015.70 1015.62 1015.54 1015.46 1015.34 1015.18 1015.10 1014.98 1015.02 1015.14 1015.18 1015.22 1015.22 1015.18 1015.22 1015.22 1015.22 1015.26 1015.26 1015.26 1015.26 1015.30 1015.42 1015.46 1015.50 1015.50 1015.54 1015.46 1015.38 1015.34 1015.22
1016.90 1016.74 1016.82 1016.98 1017.06 1016.94 1016.70 1016.46 1016.30 1016.22 1016.14 1016.06 1015.98 1015.82 1015.66 1015.50 1015.42 1015.34 1015.22 1015.14 1015.14 1015.14 1015.14 1015.14 1015.14 1015.14 1015.14 1015.14 1015.14 1015.14 1015.10 1015.10 1015.06 1015.18 1015.22 1015.30 1015.42 1015.50 1015.38 1015.46 1015.38 1015.30
1017.06 1016.94 1017.02 1017.30 1017.50 1017.30 1016.90 1016.62 1016.50 1016.46 1016.42 1016.38 1016.30 1016.18 1016.06 1015.86 1015.66 1015.54 1015.42 1015.30 1015.18 1015.10 1015.06 1015.06 1015.06 1015.10 1015.14 1015.10 1015.06 1015.10 1015.10 1015.06 1014.98 1014.90 1014.90 1014.94 1015.14 1015.26 1015.30 1015.42 1015.34 1015.30
1017.54 1017.58 1017.74 1017.82 1017.70 1017.38 1017.06 1016.94 1016.86 1016.82 1016.78 1016.70 1016.66 1016.50 1016.38 1016.18 1015.98 1015.74 1015.54 1015.38 1015.26 1015.18 1015.10 1015.02 1015.02 1015.10 1015.18 1015.14 1015.06 1015.02 1014.94 1014.94 1014.94 1014.94 1014.86 1014.90 1014.94 1014.98 1015.02 1015.14 1015.18 1015.22
1017.86 1017.90 1017.90 1017.82 1017.70 1017.50 1017.34 1017.30 1017.30 1017.26 1017.14 1017.10 1016.90 1016.74 1016.58 1016.42 1016.22 1016.02 1015.82 1015.62 1015.42 1015.26 1015.14 1015.02 1015.02 1015.10 1015.14 1015.14 1015.10 1015.02 1014.94 1014.86 1014.78 1014.74 1014.74 1014.74 1014.82 1014.90 1014.86 1014.94 1014.86 1014.90
1018.14 1018.18 1018.10 1017.94 1017.78 1017.66 1017.58 1017.62 1017.66 1017.62 1017.50 1017.34 1017.22 1017.02 1016.86 1016.66 1016.50 1016.34 1016.10 1015.90 1015.70 1015.54 1015.34 1015.22 1015.10 1015.02 1015.02 1015.02 1015.06 1015.02 1014.90 1014.82 1014.70 1014.66 1014.58 1014.50 1014.46 1014.54 1014.66 1014.74 1014.78 1014.82
1018.34 1018.22 1018.10 1018.02 1017.90 1017.86 1017.86 1017.86 1017.78 1017.74 1017.62 1017.58 1017.38 1017.14 1017.02 1016.86 1016.70 1016.50 1016.26 1016.10 1015.90 1015.74 1015.58 1015.34 1015.14 1014.94 1014.86 1014.90 1014.94 1014.94 1014.94 1014.78 1014.62 1014.54 1014.46 1014.38 1014.34 1014.22 1014.30 1014.38 1014.46 1014.54
1018.50 1018.46 1018.38 1018.30 1018.26 1018.22 1018.22 1018.22 1018.06 1017.98 1017.82 1017.66 1017.54 1017.30 1017.10 1016.94 1016.70 1016.58 1016.46 1016.30 1016.10 1015.90 1015.70 1015.46 1015.22 1015.02 1014.94 1014.90 1014.86 1014.82 1014.78 1014.78 1014.70 1014.50 1014.34 1014.26 1014.18 1014.06 1014.02 1014.06 1014.10 1014.22
1018.70 1018.70 1018.70 1018.66 1018.66 1018.62 1018.58 1018.54 1018.42 1018.30 1018.18 1018.06 1017.86 1017.62 1017.34 1017.10 1016.86 1016.58 1016.34 1016.18 1016.06 1015.94 1015.82 1015.66 1015.46 1015.26 1015.06 1014.90 1014.82 1014.74 1014.62 1014.54 1014.50 1014.42 1014.30 1014.10 1013.98 1013.82 1013.78 1013.78 1013.78 1013.86
1018.90 1018.90 1018.90 1018.94 1018.90 1018.94 1018.86 1018.78 1018.66 1018.50 1018.38 1018.22 1018.10 1017.94 1017.70 1017.38 1017.14 1016.86 1016.58 1016.34 1016.14 1015.86 1015.70 1015.62 1015.46 1015.30 1015.10 1014.94 1014.82 1014.70 1014.54 1014.42 1014.26 1014.18 1014.10 1013.94 1013.78 1013.62 1013.54 1013.50 1013.42 1013.54
1018.98 1019.02 1019.10 1019.14 1019.22 1019.22 1019.18 1019.06 1018.90 1018.74 1018.54 1018.38 1018.18 1018.02 1017.90 1017.74 1017.50 1017.34 1017.18 1016.94 1016.70 1016.46 1016.22 1015.98 1015.74 1015.58 1015.38 1015.10 1014.82 1014.62 1014.50 1014.34 1014.22 1014.02 1013.82 1013.62 1013.46 1013.30 1013.18 1013.14 1013.10 1013.14
1019.18 1019.22 1019.26 1019.30 1019.34 1019.34 1019.34 1019.26 1019.18 1019.06 1018.86 1018.62 1018.46 1018.26 1018.06 1017.86 1017.74 1017.54 1017.46 1017.30 1017.10 1016.82 1016.50 1016.22 1015.94 1015.66 1015.42 1015.18 1014.90 1014.62 1014.42 1014.26 1014.10 1013.94 1013.70 1013.42 1013.14 1012.94 1012.82 1012.78 1012.74 1012.78
1019.34 1019.34 1019.34 1019.34 1019.26 1019.26 1019.26 1019.22 1019.18 1019.14 1019.06 1018.86 1018.54 1018.38 1018.26 1018.06 1017.86 1017.66 1017.42 1017.30 1017.02 1016.78 1016.46 1016.10 1015.78 1015.46 1015.14 1014.86 1014.62 1014.38 1014.18 1014.02 1013.86 1013.66 1013.46 1013.22 1012.94 1012.70 1012.50 1012.42 1012.38 1012.46
1019.38 1019.30 1019.26 1019.22 1019.18 1019.18 1019.18 1019.10 1019.10 1019.02 1018.94 1018.74 1018.54 1018.34 1018.18 1018.02 1017.82 1017.62 1017.38 1017.18 1016.90 1016.62 1016.30 1015.94 1015.62 1015.26 1014.90 1014.58 1014.34 1014.10 1013.90 1013.70 1013.58 1013.42 1013.22 1013.02 1012.78 1012.54 1012.34 1012.22 1012.14 1012.14
1019.42 1019.42 1019.30 1019.22 1019.18 1019.18 1019.14 1019.06 1018.94 1018.86 1018.70 1018.54 1018.34 1018.14 1017.94 1017.74 1017.58 1017.42 1017.22 1016.98 1016.78 1016.50 1016.18 1015.86 1015.54 1015.18 1014.86 1014.50 1014.18 1013.90 1013.78 1013.62 1013.42 1013.22 1013.02 1012.78 1012.54 1012.38 1012.18 1012.02 1011.90 1011.82
1019.58 1019.54 1019.42 1019.26 1019.18 1019.10 1018.98 1018.82 1018.70 1018.58 1018.46 1018.30 1018.10 1017.90 1017.70 1017.46 1017.22 1017.02 1016.90 1016.74 1016.54 1016.26 1016.02 1015.78 1015.46 1015.10 1014.70 1014.38 1014.06 1013.86 1013.70 1013.50 1013.34 1013.14 1012.90 1012.62 1012.38 1012.10 1011.90 1011.78 1011.66 1011.54
1019.58 1019.46 1019.30 1019.14 1018.98 1018.86 1018.74 1018.58 1018.46 1018.38 1018.30 1018.14 1017.90 1017.70 1017.42 1017.10 1016.90 1016.66 1016.50 1016.34 1016.22 1015.98 1015.74 1015.50 1015.18 1014.86 1014.54 1014.26 1013.90 1013.58 1013.42 1013.30 1013.14 1012.94 1012.70 1012.42 1012.18 1011.90 1011.66 1011.46 1011.34 1011.26
1019.46 1019.38 1019.26 1019.06 1018.90 1018.74 1018.58 1018.42 1018.30 1018.18 1018.02 1017.86 1017.70 1017.46 1017.18 1016.94 1016.70 1016.46 1016.18 1015.98 1015.82 1015.62 1015.42 1015.14 1014.82 1014.50 1014.22 1014.02 1013.74 1013.42 1013.18 1013.06 1012.90 1012.74 1012.50 1012.18 1011.86 1011.54 1011.30 1011.10 1010.94 1010.82
1019.38 1019.26 1019.10 1018.90 1018.74 1018.58 1018.42 1018.22 1018.02 1017.86 1017.70 1017.58 1017.38 1017.14 1017.02 1016.78 1016.38 1016.14 1015.86 1015.66 1015.54 1015.30 1014.98 1014.62 1014.34 1014.06 1013.86 1013.70 1013.42 1013.10 1012.86 1012.70 1012.62 1012.42 1012.26 1011.90 1011.54 1011.22 1010.90 1010.70 1010.54 1010.42
1019.22 1019.10 1018.90 1018.66 1018.50 1018.34 1018.18 1017.98 1017.86 1017.66 1017.50 1017.42 1017.26 1017.10 1016.90 1016.58 1016.14 1015.82 1015.46 1015.22 1015.06 1014.90 1014.58 1014.26 1013.90 1013.58 1013.38 1013.26 1012.98 1012.70 1012.50 1012.34 1012.22 1012.02 1011.78 1011.54 1011.18 1010.86 1010.54 1010.26 1010.06 1009.98
1019.10 1018.90 1018.70 1018.46 1018.26 1018.10 1017.94 1017.78 1017.62 1017.46 1017.34 1017.22 1017.22 1017.06 1016.78 1016.50 1016.14 1015.66 1015.22 1014.90 1014.66 1014.46 1014.30 1013.94 1013.46 1013.06 1012.86 1012.70 1012.42 1012.18 1011.94 1011.82 1011.70 1011.54 1011.30 1011.06 1010.70 1010.38 1010.10 1009.86 1009.62 1009.46
1019.06 1018.82 1018.58 1018.34 1018.14 1017.98 1017.86 1017.66 1017.50 1017.42 1017.22 1017.02 1016.94 1016.78 1016.54 1016.34 1015.98 1015.74 1015.34 1014.94 1014.54 1014.30 1014.06 1013.58 1012.98 1012.62 1012.42 1012.26 1012.02 1011.78 1011.54 1011.38 1011.22 1010.98 1010.78 1010.50 1010.18 1009.86 1009.54 1009.30 1009.10 1008.98
1019.22 1019.02 1018.70 1018.42 1018.30 1018.18 1018.02 1017.86 1017.66 1017.34 1017.14 1016.98 1016.86 1016.58 1016.30 1016.06 1015.78 1015.54 1015.26 1014.90 1014.46 1014.18 1013.90 1013.38 1012.82 1012.34 1012.06 1011.86 1011.66 1011.38 1011.14 1010.94 1010.74 1010.54 1010.26 1009.98 1009.58 1009.22 1008.94 1008.74 1008.54 1008.38
1019.70 1019.46 1019.26 1019.06 1018.94 1018.82 1018.54 1018.22 1017.86 1017.50 1017.26 1017.02 1016.90 1016.54 1016.14 1015.78 1015.54 1015.18 1014.82 1014.54 1014.26 1013.86 1013.62 1013.34 1012.74 1012.10 1011.74 1011.46 1011.22 1010.86 1010.66 1010.42 1010.14 1009.90 1009.58 1009.34 1008.90 1008.54 1008.30 1008.14 1007.86 1007.62
1020.14 1019.98 1019.82 1019.62 1019.38 1019.06 1018.86 1018.50 1018.06 1017.66 1017.26 1017.02 1016.78 1016.46 1015.94 1015.50 1015.10 1014.78 1014.18 1013.82 1013.54 1013.34 1013.06 1012.90 1012.46 1011.86 1011.42 1011.06 1010.82 1010.42 1010.14 1009.86 1009.66 1009.38 1009.02 1008.58 1008.22 1007.74 1007.50 1007.46 1007.26 1006.94
1020.74 1020.50 1020.14 1019.94 1019.70 1019.42 1019.22 1018.94 1018.42 1017.90 1017.46 1017.14 1016.70 1016.38 1015.86 1015.30 1014.86 1014.46 1014.02 1013.46 1013.14 1012.94 1012.66 1012.34 1012.02 1011.38 1010.98 1010.58 1010.38 1010.10 1009.78 1009.66 1009.46 1009.18 1008.54 1007.94 1007.46 1007.14 1006.86 1006.54 1006.50 1006.26
Wind_Speed
7 7 7 7 7 6 6 6 6 6 6 6 6 6 6 6 6 5 3 4 4 4 4 4 5 5 5 5 5 5 6 6 6 6 7 8 9 9 10 9 7 7
9 8 7 6 6 6 6 5 6 6 6 6 6 6 6 5 6 5 5 3 3 4 4 4 4 5 5 5 5 6 6 6 7 4 6 7 8 7 10 9 8 7
9 10 10 9 8 7 6 6 6 6 6 7 6 6 6 5 6 5 5 4 4 4 4 4 5 5 5 5 5 5 6 6 7 6 6 7 7 8 8 8 9 8
9 8 6 5 6 7 7 8 8 7 7 7 7 7 6 6 6 7 6 6 5 5 4 4 4 5 5 5 5 5 5 6 6 5 6 6 6 7 8 7 8 8
7 7 7 7 7 8 7 8 8 8 7 7 7 7 8 7 7 7 7 6 5 5 5 5 5 5 5 5 5 5 5 6 5 5 6 6 6 5 6 6 8 9
5 5 5 6 7 8 8 8 8 7 7 7 8 7 6 6 7 6 7 7 6 6 5 5 5 5 5 5 5 5 6 7 6 5 6 7 7 6 5 6 7 8
7 6 7 6 7 7 8 7 7 7 8 7 7 7 6 7 6 7 7 7 7 7 6 5 5 5 5 4 5 6 6 6 6 6 6 7 6 7 6 6 7 8
7 6 7 7 7 6 7 7 7 7 7 8 8 8 8 8 8 6 5 6 6 7 7 7 7 5 5 4 5 6 6 5 6 7 7 7 6 7 7 7 6 8
6 6 7 7 7 6 7 6 6 5 5 7 8 8 8 8 8 9 9 8 7 6 6 6 6 6 6 5 5 5 6 6 6 6 7 7 7 8 7 7 7 7
5 5 7 7 7 7 8 7 7 5 5 5 6 6 8 8 8 8 8 9 9 9 9 7 7 6 6 5 6 6 6 7 7 7 7 7 8 7 7 7 8 7
5 5 5 5 5 6 6 7 7 7 7 6 7 7 6 6 7 6 7 7 7 7 8 8 8 7 6 6 6 5 6 7 7 7 7 7 8 8 7 7 7 8
5 5 5 5 4 4 4 5 6 5 6 6 5 6 8 8 7 7 6 7 7 7 7 7 7 7 7 6 6 6 6 6 6 6 7 7 7 7 7 7 8 8
5 4 4 4 4 4 4 4 4 4 5 6 5 5 5 7 7 8 8 7 8 8 8 8 7 7 7 7 7 6 6 6 7 7 7 7 6 6 6 6 7 7
4 5 5 5 4 4 4 5 4 4 5 5 5 5 5 6 6 6 8 7 8 8 8 8 7 7 7 7 7 7 7 7 7 7 7 7 7 7 7 7 7 7
4 4 5 4 4 4 5 5 4 4 5 6 6 6 6 6 6 6 6 7 7 8 8 7 8 8 6 7 7 8 7 7 8 8 8 8 8 8 7 7 7 7
4 4 4 4 4 5 5 5 5 5 5 6 7 7 7 7 7 6 5 6 8 8 7 7 8 7 9 14 13 9 8 8 8 8 8 8 9 9 9 8 8 8
4 5 5 5 6 5 6 5 6 5 5 6 6 6 8 8 8 8 8 7 7 7 8 8 8 7 13 15 17 19 11 8 8 9 8 9 9 9 10 9 8 9
6 7 7 8 7 7 7 6 5 6 7 7 7 8 7 6 8 9 9 8 8 9 9 9 9 9 16 18 19 20 16 10 8 8 8 8 9 10 9 9 9 9
6 7 7 9 9 9 8 7 8 8 9 9 10 9 7 9 11 10 9 9 8 10 11 10 10 11 16 18 20 21 21 16 9 9 9 9 9 10 10 10 9 9
8 7 8 9 9 9 9 9 9 10 9 8 8 8 9 11 12 12 12 12 10 10 10 10 12 12 18 20 21 22 21 18 10 11 10 10 10 10 10 10 10 10
9 9 10 10 10 9 9 10 11 10 10 8 7 8 10 11 11 13 12 12 12 12 11 12 12 17 21 22 22 23 23 19 11 10 10 10 11 10 10 11 11 11
8 9 10 10 10 9 10 11 10 10 11 10 9 9 9 9 11 11 13 14 14 13 12 14 14 21 22 21 22 23 25 14 11 11 11 11 11 11 11 10 10 11
9 10 11 11 9 9 10 11 12 13 12 9 10 10 11 12 13 12 12 13 14 14 13 14 15 19 24 24 23 24 19 12 11 11 11 11 12 12 12 11 11 11
11 10 10 10 10 11 13 13 13 12 12 10 11 12 13 13 13 14 14 14 14 15 14 13 15 19 26 26 27 27 22 15 12 12 12 12 13 13 11 11 12 18
11 11 12 13 13 14 13 15 15 14 13 12 12 12 14 14 14 14 15 14 13 14 15 16 16 19 27 29 29 27 21 13 12 11 13 13 13 14 12 11 11 14
12 13 13 13 14 14 14 14 14 14 14 14 14 13 14 14 14 14 16 16 15 15 15 16 17 18 20 30 29 29 29 18 12 13 15 16 15 14 13 11 11 11
Wind_Direction
26 30 29 16 9 10 1 2 357 358 350 348 347 335 341 327 340 329 256 224 223 231 245 245 243 244 242 239 234 233 233 237 236 225 229 227 233 233 238 238 234 221
25 28 28 23 10 3 356 3 359 358 348 348 341 335 330 337 329 339 323 279 260 249 256 259 255 249 247 241 238 233 237 234 239 226 227 230 233 233 241 242 245 248
23 23 21 19 7 358 357 360 3 356 354 342 339 337 331 331 327 328 329 325 304 286 274 263 265 260 253 245 238 234 235 239 242 238 228 226 225 227 236 237 244 243
25 25 21 9 7 8 6 13 7 5 357 354 344 333 334 328 329 329 327 324 321 308 294 289 274 269 265 258 249 240 231 232 235 239 245 247 234 226 230 225 237 242
19 17 17 15 12 14 15 17 10 0 358 350 343 338 338 334 332 330 326 318 317 306 298 287 282 274 268 266 256 252 250 245 243 229 233 241 244 234 237 225 233 237
11 12 7 13 8 16 14 14 7 2 356 357 346 338 339 341 336 332 324 322 319 314 303 291 276 268 266 262 263 253 248 247 246 237 238 238 242 234 233 232 240 243
8 5 5 4 6 7 11 2 1 359 355 350 343 348 347 343 339 332 329 326 323 319 313 303 290 280 270 260 257 259 256 245 246 239 239 244 236 244 235 232 238 242
6 6 5 1 8 359 7 354 353 352 347 347 349 338 345 341 340 337 333 326 321 315 317 313 309 297 281 269 258 258 257 252 252 245 245 244 236 243 237 235 232 241
7 5 7 2 10 354 360 347 345 341 345 349 338 336 335 336 334 336 335 337 331 319 308 304 298 298 294 282 268 254 253 253 247 245 244 244 242 241 239 236 239 236
359 358 7 356 2 350 351 342 342 338 339 345 331 333 334 327 331 328 330 331 332 328 326 319 312 305 302 295 282 271 263 257 253 247 243 243 242 242 239 236 236 242
354 359 5 352 350 344 337 337 336 339 338 339 337 333 328 322 323 327 319 315 313 311 312 313 308 302 299 294 287 281 275 269 262 254 248 244 241 241 239 237 239 239
347 356 342 337 334 332 324 323 330 334 330 325 326 324 326 325 321 322 315 309 304 295 288 287 289 292 288 281 275 272 273 270 269 267 264 258 251 244 240 237 242 242
334 331 319 315 312 319 321 326 326 328 326 316 310 311 309 307 312 315 312 309 304 302 295 288 286 282 282 284 287 285 276 271 268 269 267 268 263 258 250 244 241 242
324 319 317 305 310 326 322 314 318 323 320 310 310 309 302 295 292 296 298 304 301 301 296 296 294 292 287 283 281 282 285 286 281 274 274 270 268 262 259 255 251 247
302 308 300 302 309 311 301 296 297 303 309 308 306 301 295 288 286 288 292 292 294 294 297 298 297 289 285 284 284 282 278 278 280 281 279 280 277 272 263 259 257 252
271 277 276 280 295 290 283 285 290 296 299 303 302 298 296 293 289 284 283 289 292 290 289 291 286 284 284 282 278 274 273 272 273 273 273 274 275 276 273 265 259 258
303 295 293 294 282 284 287 289 290 292 293 289 289 291 292 291 288 290 291 285 283 287 290 286 280 278 279 283 286 284 281 273 269 271 268 267 267 266 269 266 262 258
314 311 308 300 299 295 292 285 285 288 288 286 289 292 287 283 282 279 278 279 282 285 283 278 275 270 280 288 286 282 278 273 268 268 268 264 262 262 261 263 262 259
299 297 294 295 296 295 291 289 286 285 285 288 287 288 296 294 288 284 276 272 270 274 277 275 274 269 276 282 284 283 281 278 271 266 264 264 262 261 260 259 259 258
291 286 283 282 283 284 284 283 281 277 277 277 282 290 288 288 288 286 285 281 274 270 270 272 271 269 274 275 276 276 277 278 269 266 262 260 262 259 260 260 255 256
288 285 283 282 280 279 280 279 277 279 277 276 277 277 280 282 285 285 280 279 280 278 277 275 272 267 270 271 269 269 270 274 267 262 260 259 259 258 255 254 256 254
290 290 288 286 284 284 284 284 285 282 283 285 285 281 276 278 277 275 278 277 276 275 274 273 273 275 275 272 272 272 271 266 261 258 259 257 256 257 255 252 253 250
304 301 297 295 299 302 300 300 298 294 290 289 287 285 285 283 281 279 279 277 275 273 270 272 275 275 275 274 273 273 271 263 258 257 256 257 257 255 253 251 249 247
312 310 312 316 317 310 307 304 300 295 290 292 286 287 284 282 283 283 278 274 272 271 269 273 275 277 279 279 277 275 271 265 258 256 254 256 259 255 251 248 244 243
315 316 312 308 305 302 302 299 296 294 292 291 285 282 279 281 278 276 275 271 268 268 271 271 272 276 278 279 279 277 275 269 266 262 263 259 258 259 254 247 246 244
312 309 306 306 305 305 303 297 295 295 292 291 287 283 282 279 278 276 275 275 274 273 272 270 273 273 273 275 276 276 276 274 270 267 262 262 259 258 258 252 242 244